Regional Weather Roundup
Issued by NWS

Home | Current Version | Previous Version | Graphics & Text | Print | Product List | Glossary On
Versions: 1 2 3 4 5 6 7 8 9 10 11 12 13 14 15 16 17 18 19 20 21 22 23 24 25 26 27 28 29 30 31 32 33 34 35 36 37 38 39 40 41 42 43 44 45 46 47 48 49 50
000
ASUS43 KTOP 282008
RWRKS

WEATHER ROUNDUP FOR KANSAS
NATIONAL WEATHER SERVICE GOODLAND KS
300 PM CDT SUN MAY 28 2017

NOTE:  "FAIR" INDICATES FEW OR NO CLOUDS BELOW 12,000 FEET WITH NO
SIGNIFICANT WEATHER AND/OR OBSTRUCTIONS TO VISIBILITY.

KSZ001>006-013>018-027>032-041>047-282100-
NORTHWEST KANSAS

CITY           SKY/WX    TMP DP  RH WIND       PRES   REMARKS
GOODLAND       MOSUNNY   71  41  33 N9G17     30.15F
HAYS           SUNNY     78  45  30 NW10      30.07F
HILL CITY      MOSUNNY   81  40  23 N12G18    30.08F
RUSSELL        SUNNY     78  47  33 NW9       30.04F
$$

KSZ061>065-074>080-084>089-282100-
SOUTHWEST KANSAS

CITY           SKY/WX    TMP DP  RH WIND       PRES   REMARKS
DODGE CITY     PTSUNNY   76  42  29 NW9       30.10F
ELKHART          N/A     72  38  29 MISG        N/A
GARDEN CITY    MOSUNNY   79  39  23 NW20G28   30.12F
GREAT BEND     SUNNY     77  49  37 N12G20    30.06F
LIBERAL        PTSUNNY   75  43  31 N8        30.15F
PRATT          MOSUNNY   77  42  29 NW9G17    30.07F
$$

KSZ066>073-081>083-090>101-282100-
SOUTHEAST KANSAS

CITY           SKY/WX    TMP DP  RH WIND       PRES   REMARKS
CHANUTE        SUNNY     81  50  33 W14       30.00F
COFFEYVILLE    MOSUNNY   81  56  42 VRB6G18   30.00F
HUTCHINSON     SUNNY     82  46  28 W8G20     30.03F
MEDICINE LODGE   N/A     81  41  24 W9        30.06F
NEWTON         MOSUNNY   81  46  29 W9G20     30.04S
PARSONS        MOSUNNY   82  51  34 N9G18     30.01F
WICHITA INTL   MOSUNNY   82  47  29 NW14G21   30.03F
WICHITA JABRA  SUNNY     82  47  29 NW15G21   30.03F
WICHITA MCCONL SUNNY     81  44  27 NW13      30.03F
WINFIELD       SUNNY     81  47  30 NW7       30.04F
$$

KSZ007>012-019>026-033>040-048>060-102>105-282100-
NORTHEAST KANSAS

CITY           SKY/WX    TMP DP  RH WIND       PRES   REMARKS
CONCORDIA      SUNNY     78  48  34 NW9       30.00F
EMPORIA        SUNNY     79  49  34 W15G22    30.00S
LAWRENCE       MOSUNNY   81  54  39 W16G24    29.95F
MANHATTAN      MOSUNNY   81  52  36 W9        29.99S
MARYSVILLE     MOSUNNY   79  48  34 W6G17     29.97S
OLATHE IND     MOSUNNY   80  52  37 W9        29.96F
OLATHE EXE     MOSUNNY   79  50  36 NW14G22   29.95F
SALINA         SUNNY     83  49  30 NW13      30.01F
TOPEKA BILLARD MOSUNNY   82  56  40 W12       29.95F
TOPEKA FORBES  SUNNY     82  52  35 W17G26    29.96F
$$



USA.gov is the U.S. government's official web portal to all federal, state and local government web resources and services.